Regional Weather Roundup
Issued by NWS Charleston, SC

Current Version | Previous Version | Text Only | Print | Product List | Glossary Off
Versions: 1 2 3 4 5 6 7 8 9 10 11 12 13 14 15 16 17 18 19 20 21 22 23 24 25 26 27 28 29 30 31 32 33 34 35 36 37 38 39 40 41 42 43 44 45 46 47 48 49 50
000 ASUS42 KCHS 102227 RWRCHS REGIONAL WEATHER ROUNDUP NATIONAL WEATHER SERVICE CHARLESTON SC 500 PM EST SAT DEC 10 2016 NOTE: "FAIR" INDICATES FEW OR NO CLOUDS BELOW 12,000 FEET WITH NO SIGNIFICANT WEATHER AND/OR OBSTRUCTIONS TO VISIBILITY. NOT ALL STATIONS ARE QUALITY CONTROLLED. USE DATA WITH CAUTION... ESPECIALLY DEWPOINT OBSERVATIONS. SCZ027-030-031-034>040-042>050-102300- ...SOUTHEAST SOUTH CAROLINA... CITY SKY/WX TMP DP RH WIND PRES REMARKS N CHARLESTON CLEAR 47 20 34 NE6 30.47S WATERFRONT PRK N/A 51 24 34 NE7 30.47S MOUNT PLEASANT FAIR 46 28 49 CALM 30.48S JOHNS ISLAND FAIR 46 27 46 CALM 30.47S PINOPOLIS N/A 46 25 42 N5 30.40F MONCKS CORNER FAIR 41 27 56 CALM 30.48S SUMMERVILLE FAIR 45 27 49 CALM 30.49S BEAUFORT MCAS CLEAR 50 21 32 E3 30.47S BEAUFORT ARPT FAIR 46 28 49 E5 30.46S HILTON HEAD IS CLEAR 52 27 37 NE6 30.47S WALTERBORO CLEAR 46 21 36 CALM 30.48R ALLENDALE FAIR 46 27 46 CALM 30.46R ...SOUTHERN MIDLANDS AND PEE DEE... CITY SKY/WX TMP DP RH WIND PRES REMARKS GEORGETOWN NOT AVBL KINGSTREE FAIR 37 23 56 CALM 30.49S ORANGEBURG CLEAR 45 20 36 CALM 30.47R BARNWELL NOT AVBL AIKEN FAIR 43 21 42 CALM 30.48S MANNING FAIR 37 27 65 CALM 30.49R COLUMBIA CLEAR 46 19 34 SE5 30.46S SUMTER CLEAR 43 19 37 E3 30.46R FLORENCE CLEAR 44 17 33 CALM 30.49S MYRTLE BEACH CLEAR 45 18 33 N9 30.51S N MYRTLE BEACH CLEAR 43 20 39 CALM 30.48F $$ GAZ063-065-086>088-099>101-113>116-118-119-134>141-150-102300- ...SOUTHEAST GEORGIA... CITY SKY/WX TMP DP RH WIND PRES REMARKS SAVANNAH ARPT CLEAR 50 20 30 E8 30.46S HUNTER AAF CLEAR 50 30 47 E7 30.44R FORT STEWART CLEAR 50 25 37 CALM 30.43R HAZE STATESBORO CLEAR 48 27 44 CALM 30.46S SYLVANIA CLEAR N/A N/A N/A CALM 30.47R CLAXTON FAIR 46 31 56 CALM 30.45S ...CSRA...CENTRAL AND FAR SOUTHEAST GEORGIA... CITY SKY/WX TMP DP RH WIND PRES REMARKS THOMSON CLEAR 47 27 46 CALM 30.49S AUGUSTA-BUSH CLEAR 51 18 27 CALM 30.46R AUGUSTA-DANIEL CLEAR 48 17 29 SE3 30.46R SWAINSBORO FAIR 48 21 34 SE6 30.46R VIDALIA CLEAR 48 28 46 E3 30.44S EASTMAN FAIR 51 -6 9 E5 30.46R HAZLEHURST FAIR 51 22 32 CALM 30.42S ALMA CLEAR 53 22 29 E3 30.42S WAYCROSS CLEAR 55 29 37 NE5 30.41F JESUP FAIR 52 37 58 E5 30.44S BAXLEY FAIR 50 28 43 E5 30.42F BRUNSWICK CLEAR 50 43 76 NE5 30.45S SAINT SIMONS CLEAR 52 42 69 N14G22 30.43S $$ SCZ027-028-034-036>038-045-046-048>050-GAZ119-141-102300- ...LAKE AND SUPPLEMENTAL COASTAL OBSERVATIONS... STATION/POSITION TIME TEMP WIND PRES WAVE SWELL AIR SEA DIR/SP/G HT/PER HT/PER/DIR (UTC) (F) (DEG/KT/KT) (MB) (FT/S) (FT/S/D) WINYAH BAY 2130 46 360/ 4 1032.0S LAKE MURRAY 2120 49 CALM / 6 1030.8 ACE BASIN NERRS 2145 50 70/ 1 1031.0S FORT PULASKI 2200 50 58 70/ 11/ 13 1031.6 SAPELO ISLAND 2200 51 40/ 10 1031.0 $$ ANZ835-935-AMZ111-154-330-350-352-354-370-450-454-472-102300- ...C-MAN AND BUOY OBSERVATIONS... STATION/POSITION TIME TEMP WIND PRES WAVE SWELL AIR SEA DIR/SP/G HT/PER HT/PER/DIR (UTC) (F) (DEG/KT/KT) (MB) (FT/S) (FT/S/D) BUOY 41004 2150 51 73 30/ 12/ 16 1031.3R 3/ 5 2/ 40/ 6 BUOY 41008 2150 54 63 50/ 17/ 21 1030.0R 4/ 5 2/ 90/ 8 FOLLY BEACH CMAN 2200 49 50/ 8/ 9 1032.3F CAPERS NEARSHORE 2208 48 60 40/ 8/ 12 1031.7S FRIPP NEARSHORE 2208 50 60 50/ 10/ 14 1031.2F STATION/POSITION TIME TEMP WIND PRES WAVE SWELL AIR SEA DIR/SP/G HT/PER HT/PER/DIR (UTC) (F) (DEG/KT/KT) (MB) (FT/S) (FT/S/D) 5E ST. MARYS GA 2200 64 N/A 5/ 5 FRYING PAN BUOY 2210 46 72 360/ 8/ 14 1032.0 BUOY 41025 2150 43 77 330/ 10/ 14 1031.7R 4/ 9 3/ 50/ 9 CAPE LOOKOUT NC 2200 42 350/ 5/ 7 1031.7R BUOY 41002 2150 61 73 10/ 10/ 14 1028.9R 4/ 8 3/ 40/ 8 BUOY 41010 NOT AVBL ST AUGUSTINE FL 2200 59 63 360/ 22/ 24 1029.4R $$

USA.gov is the U.S. government's official web portal to all federal, state and local government web resources and services.